DW6536 Weather Reports


Display with metric or nautical units.
time (UTC)temp
F
wind
direction
speed
MPH
gust
MPH
rain 1hr
in
rain 24hr
in
rain mn
in
humidity
%
barometer
mb
20221205183023 70 168 2.0 0.0 0.00 0.00 0.00 86 1012.2
20221205181516 70 180 2.0 0.0 0.00 0.00 0.00 87 1012.2
20221205180018 69 187 2.0 0.0 0.00 0.00 0.00 87 1012.5
20221205174514 69 257 2.0 0.0 0.00 0.00 0.00 89 1012.5
20221205173011 68 198 3.0 0.0 0.00 0.00 0.00 90 1012.9
20221205171507 67 186 2.0 0.0 0.00 0.00 0.00 91 1013.3
20221205170014 66 147 2.0 0.0 0.00 0.00 0.00 92 1013.6
20221205164501 65 189 1.0 0.0 0.00 0.00 0.00 94 1014.1
20221205163100 65 106 1.0 0.0 0.00 0.00 0.00 95 1014.4
20221205161557 64 193 1.0 0.0 0.00 0.00 0.00 96 1014.3
20221205160056 64 203 1.0 0.0 0.00 0.00 0.00 97 1014.5
20221205154553 63 136 0.0 0.0 0.00 0.00 0.00 98 1014.4
20221205153050 62 210 0.0 0.0 0.00 0.00 0.00 98 1014.4
20221205151549 61 272 0.0 0.0 0.00 0.00 0.00 98 1014.6
20221205150047 61 200 0.0 0.0 0.00 0.00 0.00 98 1014.4
20221205144546 61 177 0.0 0.0 0.00 0.00 0.00 97 1014.5
20221205143058 60 247 0.0 0.0 0.00 0.00 0.00 98 1014.9
20221205141543 60 222 0.0 0.0 0.00 0.00 0.00 98 1014.6
20221205140050 60 277 0.0 0.0 0.00 0.00 0.00 97 1014.5
20221205134551 60 277 0.0 0.0 0.00 0.00 0.00 97 1014.4
20221205133043 60 257 0.0 0.0 0.00 0.00 0.00 98 1014.2
20221205131541 60 252 0.0 0.0 0.00 0.00 0.00 98 1014.1
20221205130049 60 193 0.0 0.0 0.00 0.00 0.00 97 1014.0
20221205124550 59 214 1.0 0.0 0.00 0.00 0.00 97 1013.6
20221205123037 59 203 1.0 0.0 0.00 0.00 0.00 97 1013.5
20221205121537 59 234 0.0 0.0 0.00 0.00 0.00 97 1013.5
20221205120035 59 199 0.0 0.0 0.00 0.00 0.00 97 1013.5
20221205114552 58 195 0.0 0.0 0.00 0.00 0.00 97 1013.5
20221205113034 58 313 0.0 0.0 0.00 0.00 0.00 97 1013.5
20221205111538 58 194 0.0 0.0 0.00 0.00 0.00 97 1013.4
20221205110029 58 198 0.0 0.0 0.00 0.00 0.00 97 1013.5
20221205104528 57 197 0.0 0.0 0.00 0.00 0.00 97 1013.7
20221205103025 57 208 0.0 0.0 0.00 0.00 0.00 97 1013.9
20221205101523 57 226 0.0 0.0 0.00 0.00 0.00 96 1014.0
20221205100034 57 160 0.0 0.0 0.00 0.00 0.00 96 1014.1
20221205094521 57 226 0.0 0.0 0.00 0.00 0.00 96 1014.3
20221205093019 57 257 0.0 0.0 0.00 0.00 0.00 95 1014.4
20221205091516 56 206 0.0 0.0 0.00 0.00 0.00 95 1014.6
20221205090021 56 230 0.0 0.0 0.00 0.00 0.00 95 1014.9
20221205084514 56 193 1.0 0.0 0.00 0.00 0.00 94 1015.0
20221205083012 56 214 0.0 0.0 0.00 0.00 0.00 94 1015.1
20221205081515 56 222 1.0 0.0 0.00 0.00 0.00 93 1015.1
20221205080009 56 194 0.0 0.0 0.00 0.00 0.00 93 1015.3
20221205074507 56 237 1.0 0.0 0.00 0.00 0.00 92 1015.4
20221205073004 56 238 0.0 0.0 0.00 0.00 0.00 92 1015.8
20221205071502 56 249 1.0 0.0 0.00 0.00 0.00 91 1016.0
20221205070001 55 258 0.0 0.0 0.00 0.00 0.00 91 1016.2
20221205064620 55 254 1.0 0.0 0.00 0.00 0.00 91 1016.4
20221205063113 55 274 0.0 0.0 0.00 0.00 0.00 91 1016.5
20221205061556 55 262 1.0 0.0 0.00 0.00 0.00 91 1016.6
20221205060054 55 190 0.0 0.0 0.00 0.00 0.00 91 1016.9
20221205054556 55 214 0.0 0.0 0.00 0.00 0.00 91 1016.9
20221205053053 55 208 1.0 0.0 0.00 0.00 0.00 91 1017.1
20221205051551 54 242 0.0 0.0 0.00 0.00 0.00 92 1017.5
20221205050049 54 210 0.0 0.0 0.00 0.00 0.00 92 1017.6
20221205044546 55 209 0.0 0.0 0.00 0.00 0.00 93 1017.8
20221205043044 54 236 0.0 0.0 0.00 0.00 0.00 93 1017.7
20221205041543 54 195 0.0 0.0 0.00 0.00 0.00 94 1018.1
20221205040038 0 0.0 0.0 0.00 0.00 0.00 1018.1
20221205034534 0 0.0 0.0 0.00 0.00 0.00 1018.3
20221205033029 0 0.0 0.0 0.00 0.00 0.00 1018.5
20221205031537 54 282 0.0 0.0 0.00 0.00 0.00 94 1018.6
20221205030029 54 166 0.0 0.0 0.00 0.00 0.00 94 1018.7
20221205024526 54 284 0.0 0.0 0.00 0.00 0.00 94 1018.9
20221205023025 54 284 0.0 0.0 0.00 0.00 0.00 94 1018.7
20221205021525 54 170 0.0 0.0 0.00 0.00 0.00 94 1018.9
20221205020024 54 207 0.0 0.0 0.00 0.00 0.00 94 1018.9
20221205014523 54 151 0.0 0.0 0.00 0.00 0.00 94 1019.0
20221205013023 54 117 0.0 0.0 0.00 0.00 0.00 94 1019.1
20221205011523 54 120 0.0 0.0 0.00 0.00 0.00 93 1019.0
20221205010023 54 120 0.0 0.0 0.00 0.00 0.00 94 1019.1
20221205004522 54 120 0.0 0.0 0.00 0.00 0.00 93 1019.1
20221205003021 54 120 0.0 0.0 0.00 0.00 0.00 93 1019.1
20221205001527 54 120 0.0 0.0 0.00 0.00 0.00 93 1019.1
20221205000019 54 120 0.0 0.0 0.00 0.00 0.00 92 1019.1
20221204234519 55 120 0.0 0.0 0.00 0.00 0.00 91 1018.8
20221204233019 55 141 0.0 0.0 0.00 0.00 0.00 89 1018.7
20221204231518 55 125 1.0 0.0 0.00 0.00 0.00 89 1018.6
20221204230016 55 118 0.0 0.0 0.00 0.00 0.00 88 1018.9
20221204224515 55 112 0.0 0.0 0.00 0.00 0.00 88 1018.9
20221204223012 55 54 0.0 0.0 0.00 0.00 0.00 86 1019.2
20221204221517 56 54 0.0 0.0 0.00 0.00 0.00 87 1019.5
20221204220009 56 47 0.0 0.0 0.00 0.00 0.00 87 1019.5
20221204214512 56 47 0.0 0.0 0.00 0.00 0.00 84 1019.8
20221204213007 57 47 0.0 0.0 0.00 0.00 0.00 82 1019.7
20221204211505 57 47 0.0 0.0 0.00 0.00 0.00 79 1019.8
20221204210004 57 16 0.0 0.0 0.00 0.00 0.00 77 1019.8
20221204204505 57 15 0.0 0.0 0.00 0.00 0.00 77 1020.0
20221204203001 57 60 0.0 0.0 0.00 0.00 0.00 77 1020.3
20221204201559 57 49 0.0 0.0 0.00 0.00 0.00 76 1020.7
20221204200058 57 122 0.0 0.0 0.00 0.00 0.00 76 1020.8
20221204194603 57 120 0.0 0.0 0.00 0.00 0.00 78 1021.0
20221204193054 57 174 0.0 0.0 0.00 0.00 0.00 76 1021.2
20221204191557 57 195 0.0 0.0 0.00 0.00 0.00 76 1021.7
20221204190048 57 251 0.0 0.0 0.00 0.00 0.00 76 1021.9
20221204184547 57 131 1.0 0.0 0.00 0.00 0.00 74 1022.2